Simultaneous Nadir Overpasses (SNOs) Predictions

Prediction of SNOs between AQUA and METOP-A Satellite Orbit:

Table of predicted SNOs for the next 14.0 days since TLE Epoch: 4/9/2016
Index Date (AQUA) Time (AQUA) Lat,Lon (AQUA) SZA (AQUA ) Date (METOP-A) Time (METOP-A) Lat,Lon (METOP-A) SZA (METOP-A ) Distance(km) Time Diff (sec)
1 04/10/2016 10:47:31 -73.83,-167.55 114.37 04/10/2016 10:46:19 -73.82,-167.62 114.36 2.28 72
2 04/10/2016 11:37:00 73.92, -0.11 65.72 04/10/2016 11:36:57 73.89, -0.12 65.70 2.65 3
3 04/10/2016 12:26:27 -73.98, 167.39 114.23 04/10/2016 12:27:38 -73.95, 167.35 114.26 3.12 71
4 04/13/2016 06:21:47 -73.84,-101.15 115.39 04/13/2016 06:20:41 -73.86,-101.14 115.36 2.15 66
5 04/13/2016 07:11:16 73.93, 66.28 64.70 04/13/2016 07:11:19 73.93, 66.36 64.70 2.53 3
6 04/13/2016 08:00:45 -74.09,-126.44 115.14 04/13/2016 08:01:57 -74.13,-125.80 115.13 19.90 72
7 04/16/2016 01:56:04 -73.86, -34.78 116.37 04/16/2016 01:55:05 -73.84, -34.78 116.39 2.96 59
8 04/16/2016 02:45:32 73.91, 132.76 63.67 04/16/2016 02:45:43 73.91, 132.72 63.67 1.34 11
9 04/16/2016 03:35:07 -74.37, -60.67 115.85 04/16/2016 03:36:16 -74.36, -58.83 115.93 55.24 69
10 04/18/2016 21:30:20 -73.86, 31.67 117.37 04/18/2016 21:29:28 -73.86, 31.69 117.35 0.96 52
11 04/18/2016 22:19:48 73.91,-160.80 62.68 04/18/2016 22:20:06 73.93,-160.81 62.70 3.04 18
12 04/18/2016 23:09:29 -74.67, 5.04 116.52 04/18/2016 23:10:34 -74.63, 8.28 116.66 95.74 65
13 04/21/2016 17:04:35 -73.86, 98.09 118.32 04/21/2016 17:03:50 -73.89, 98.14 118.30 2.92 45
14 04/21/2016 17:54:03 73.92, -94.39 61.72 04/21/2016 17:54:29 73.90, -94.48 61.71 2.95 26




NCC Satellite Simultaneous Nadir Overpasses (SNOs) Prediction Service
